Satellite: NOAA-11
Catalog number: 19531
Epoch time:      06136.81906023
Element set:    0120
Inclination:      098.8261 deg
RA of node:       225.5735 deg
Eccentricity:    0.0012565
Arg of perigee:   079.5903 deg
Mean anomaly:     280.6695 deg
Mean motion:   14.14796031 rev/day
Decay rate:      -1.80e-06 rev/day^2
Epoch rev:           91010
Checksum:              287

Satellite: NOAA-12
Catalog number: 21263
Epoch time:      06136.80026825
Element set:    0613
Inclination:      098.7286 deg
RA of node:       130.2196 deg
Eccentricity:    0.0012715
Arg of perigee:   175.2324 deg
Mean anomaly:     184.8977 deg
Mean motion:   14.25488624 rev/day
Decay rate:        3.2e-07 rev/day^2
Epoch rev:           77977
Checksum:              317

Satellite: MET-3/5
Catalog number: 21655
Epoch time:      06137.90198429
Element set:     103
Inclination:      082.5541 deg
RA of node:       282.1869 deg
Eccentricity:    0.0014315
Arg of perigee:   114.8297 deg
Mean anomaly:     245.4316 deg
Mean motion:   13.17005095 rev/day
Decay rate:        5.1e-07 rev/day^2
Epoch rev:           70937
Checksum:              296

Satellite: MET-2/21
Catalog number: 22782
Epoch time:      06137.58731978
Element set:     508
Inclination:      082.5488 deg
RA of node:       355.7327 deg
Eccentricity:    0.0020780
Arg of perigee:   266.4438 deg
Mean anomaly:     093.4352 deg
Mean motion:   13.83604911 rev/day
Decay rate:        8.7e-07 rev/day^2
Epoch rev:           64181
Checksum:              329

Satellite: OKEAN-4
Catalog number: 23317
Epoch time:      06136.76265551
Element set:    0945
Inclination:      082.5375 deg
RA of node:       306.3145 deg
Eccentricity:    0.0023764
Arg of perigee:   116.2608 deg
Mean anomaly:     244.1035 deg
Mean motion:   14.82354183 rev/day
Decay rate:        5.7e-07 rev/day^2
Epoch rev:           62532
Checksum:              288

Satellite: NOAA-14
Catalog number: 23455
Epoch time:      06136.80327736
Element set:    0120
Inclination:      099.0393 deg
RA of node:       194.7361 deg
Eccentricity:    0.0010065
Arg of perigee:   136.4494 deg
Mean anomaly:     223.7483 deg
Mean motion:   14.13656743 rev/day
Decay rate:      -1.06e-06 rev/day^2
Epoch rev:           58663
Checksum:              301

Satellite: SICH-1
Catalog number: 23657
Epoch time:      06136.73559031
Element set:    0748
Inclination:      082.5276 deg
RA of node:       087.2312 deg
Eccentricity:    0.0025627
Arg of perigee:   104.9307 deg
Mean anomaly:     255.4746 deg
Mean motion:   14.81351424 rev/day
Decay rate:       2.46e-06 rev/day^2
Epoch rev:           57733
Checksum:              304

Satellite: NOAA-15
Catalog number: 25338
Epoch time:      06136.83899887
Element set:    0513
Inclination:      098.5151 deg
RA of node:       140.0802 deg
Eccentricity:    0.0011653
Arg of perigee:   104.3959 deg
Mean anomaly:     255.8515 deg
Mean motion:   14.24578187 rev/day
Decay rate:        9.0e-08 rev/day^2
Epoch rev:           41625
Checksum:              320

Satellite: RESURS
Catalog number: 25394
Epoch time:      06136.80804980
Element set:     368
Inclination:      098.4931 deg
RA of node:       200.7534 deg
Eccentricity:    0.0000709
Arg of perigee:   300.8461 deg
Mean anomaly:     059.2648 deg
Mean motion:   14.24100207 rev/day
Decay rate:        1.7e-07 rev/day^2
Epoch rev:           40793
Checksum:              282

Satellite: FENGYUN1
Catalog number: 25730
Epoch time:      06136.58432987
Element set:    0732
Inclination:      098.6241 deg
RA of node:       130.3292 deg
Eccentricity:    0.0013639
Arg of perigee:   229.4461 deg
Mean anomaly:     130.5524 deg
Mean motion:   14.11810987 rev/day
Decay rate:      -1.15e-06 rev/day^2
Epoch rev:           36155
Checksum:              289

Satellite: OKEAN-0
Catalog number: 25860
Epoch time:      06137.65008081
Element set:     749
Inclination:      097.7338 deg
RA of node:       153.4069 deg
Eccentricity:    0.0000874
Arg of perigee:   112.0423 deg
Mean anomaly:     248.0871 deg
Mean motion:   14.73362633 rev/day
Decay rate:        8.9e-07 rev/day^2
Epoch rev:           36725
Checksum:              302

Satellite: NOAA-16
Catalog number: 26536
Epoch time:      06136.69097661
Element set:    0882
Inclination:      099.0646 deg
RA of node:       102.9431 deg
Eccentricity:    0.0009989
Arg of perigee:   205.2122 deg
Mean anomaly:     154.8578 deg
Mean motion:   14.12338547 rev/day
Decay rate:       -3.6e-07 rev/day^2
Epoch rev:           29113
Checksum:              323

Satellite: NOAA-17
Catalog number: 27453
Epoch time:      06136.82840096
Element set:    0903
Inclination:      098.6218 deg
RA of node:       209.6480 deg
Eccentricity:    0.0012248
Arg of perigee:   162.3441 deg
Mean anomaly:     197.8186 deg
Mean motion:   14.23776395 rev/day
Decay rate:       -6.3e-07 rev/day^2
Epoch rev:           20231
Checksum:              311

Satellite: NOAA-18
Catalog number: 28654
Epoch time:      06136.79267280
Element set:    0483
Inclination:      098.7874 deg
RA of node:       080.7430 deg
Eccentricity:    0.0013910
Arg of perigee:   313.9601 deg
Mean anomaly:     046.0426 deg
Mean motion:   14.10957439 rev/day
Decay rate:       -9.1e-07 rev/day^2
Epoch rev:           05095
Checksum:              314

/EX
SB KEPS @ AMSAT  $ORB06137.M
Orbital Elements  06137.MISC

HR AMSAT ORBITAL ELEMENTS FOR MANNED AND MISCELLANEOUS SATELLITES
FROM WA5QGD FORT WORTH,TX May 17, 2006
Send SUBSCRIBE KEPS/UNSUBSCRIBE KEPS to majordomo@amsat.org only
BID: ORB06137.M
TO ALL RADIO AMATEURS BT

